Location: Minneapolis
(44.9800°N, 93.2640°W)
Time: 22:22:20

Tiangong 1 - Visible Passes

Search period start: 24 March 2018 00:00
Search period end: 03 April 2018 00:00
Orbit: 205 x 227 km, 42.7° (Epoch: 24 March)

Date Brightness Start Highest point End Pass type
(mag) Time Alt. Az. Time Alt. Az. Time Alt. Az.
31 Mar 2.2 06:26:05 10° SSW 06:27:27 17° SSE 06:28:49 10° ESE visible
01 Apr 2.0 05:58:40 13° SSW 05:59:37 17° SSE 06:01:00 10° ESE visible
02 Apr 2.1 05:31:04 17° SSE 05:31:04 17° SSE 05:32:12 10° ESE visible
